Location: Dvur Kralove nad Labem
(50.4330°N, 15.8170°E)
Time: 15:03:00
(UTC+02:00)

ISS - Pass Details

Date: 25 May 2018
Orbit: 402 x 407 km, 51.6° (Epoch: 24 May)

Event Time Altitude Azimuth Distance (km) Brightness Sun altitude
Rises 21:59:40 0° 252° (WSW) 2,316 0.3 -8.9°
Reaches altitude 10° 22:01:45 10° 252° (WSW) 1,457 -0.7 -9.1°
Maximum altitude 22:05:01 85° 164° (SSE) 410 -3.9 -9.4°
Drops below altitude 10° 22:08:18 10° 76° (ENE) 1,459 -1.3 -9.7°
Sets 22:10:22 0° 76° (ENE) 2,320 -0.2 -10.0°
